Showing default

QIANFAN-26, 61559

Orbit data source: Space-Track

QIANFAN-26, 61559 is a Chinese payload satellite in LEO that was launched on Tue, 15 Oct 2024 UTC via a CHANG ZHENG 6A launch vehicle from the Taiyaun Space Center, China (TSC). Payload-class satellites include a variety of spacecraft equipped with specific instruments for various scientific and technological missions. These include communications satellites like Starlink; space stations such as the ISS; scientific satellites like the Hubble; Earth observation satellites from companies like Planet Labs, Umbra, and HawkEye 360; GPS; miniature CubeSats for education and research; and military/defense satellites.

Loading next visibility...
Identifier
61559, 2024-185H
Orbit
LEO
Country
Flag of CNCN / PRC
Related business
Manufacturer
GESIH/SECM
Mission
Operational Commercial Communications
Bus & Motor
QIANFAN, Unknown motor
Mass
267 kg wet, ~267 kg dry
Launch date (UTC)
2024-10-15 (1 year ago)
Launch vehicle
CHANG ZHENG 6A
Launch site
Taiyaun Space Center, China (TSC)
Object type
Payload
Rocket body
Debris
Shape & HBR
Box + 1 Pan, 5.0 m
Radar Cross Section
13.200 m², Large (>1 m²)

Expand to show TLE details & history
Last TLE update: 6 hours ago

TLE from 6 hours ago
0 QIANFAN-26
1 61559U 24185H   25354.44662192  .00000252  00000-0  23941-3 0  9990
2 61559  88.9811  78.9210 0005111   8.7111 351.4144 13.77816047 69737
Epoch: 2025-12-20T10:43Z
TLE epoch observation values (Epoch: 2025-12-20T10:43:08.133Z)
Latitude
0.00004°
Longitude
-171.13619°
Altitude
970.92 km
Speed
7.368 km/s
True Right ascension
05h 15m 41s
True Declination
0° 00' 00"
Sunlit
Object was in full shadow at epoch
Visualization orbit readout
Latitude
Unknown
Longitude
Unknown
Altitude
Unknown
Speed
Unknown
Apparent Right ascension
Unknown
Apparent Declination
Unknown
Sunlit
N/A
Visualization observer readout
Local Sidereal Time
15:57:24
Azimuth
Unknown
Elevation
Unknown
Doppler factor
Unknown
Orbital elements
Apogee altitude
972.41 km
Perigee altitude
964.9 km
Semi-major axis
7,346.792 km
Eccentricity
0.00051
Inclination
88.9811°
RAAN
78.921°
Arg. of periapsis
8.7111°
True anomaly
351.40565°
Mean anomaly
351.4144°
Eccentric anomaly
351.41003°
Mean motion
3.44664 °/min
Orbital period
104.45 mins
BSTAR
0.00023941
Loading maneuver chart data...
Computing Atmospheric mass density...
Loading historical data...
Loading historical data...
Loading historical data...
Loading historical data...
Loading historical data...
Loading historical data...
Loading historical data...

Documentation

Showing up to 5 results
|